Find Starlink 30824

NORAD ID: 58176 Int'l Des: 2023-167 Owner: SPXS Country: US Constellation: starlink operational
LEOCIRCULAR

实时位置

正在加载3D地球...

关于 Starlink 30824

正在加载描述...

即将过境

Passes for default location (London). Set your location on the main map for personalized predictions.

高度历史

Loading altitude history...

两行轨道根数

1 58176U 23167B 26125.18562150 .00001504 00000-0 64168-4 0 9999
2 58176 42.9978 184.5004 0000973 280.8072 79.2670 15.27577105139628
Epoch: May 5, 2026 • Age: 5 hours

当前状态

高度 483.0 km
速度 7.63 km/s
星下点 -2.39°S, 179.62°W
发射日期 Oct 30, 2023
运行时间 2.5 years
类型 internet

技术详情

分类 Payload
质量 730.00 kg
干质量 700.00 kg
总质量 730.00 kg
长度 0.30 m
直径 4.10 m
跨度 29.00 m
形状 Box + pan
制造商 SPXS
平台类型 Starlink V2M
阶段状态 In Orbit
所有者/国家 SPXS/US

Most Searched